LiveATC.Net - Listen to live air traffic control over the Internet!


ICAO: KBID  IATA: BID   Airport: Block Island State Airport
City: Block Island   State/Province: Rhode Island
Country: United States   Continent: North America
KBID METAR Weather: KBID 121156Z AUTO 34012G17KT 10SM CLR M04/M10 A3065 RMK AO2 SLP381 60000 70010 T10441100 11011 21044 53035 FZRANO
KBID Flight Activity (FlightAware)
KBID Airport Info   (iFlightPlanner)
KBID VFR Sectional Chart   (iFlightPlanner) 
KBID IFR Low Chart   (iFlightPlanner) 

KBID CTAF
Feed Status: UP   Listeners: 0
Listen in your browser - HTML5 player (in browser, HTML5)
Click here to listen with your own player (launches your MP3 player)
Archive Access: KBID CTAF
FacilityFrequency
Block Island CTAF123.000

NOTICE

Unauthorized use prohibited. See LiveATC.net Terms of Service


Airport/ARTCC Code
Frequency Search
(e.g., 124.400, 128.75)
Site-wide search
 


Browse Feeds
Top 50 Feeds
Coverage Map
Bad Weather Areas

LiveATC FAQ
Offer LiveATC feed
Contact LiveATC.net
Press Inquiries

LiveATC on iPhone
LiveATC on Android

Windows Phone
Windows 8/10

LiveATC Mobile
(Mobile browser)

ATC Audio Archives
Interesting Recordings

LiveATC Forums


Home Page
About LiveATC.net
Make a Donation
Terms of Use
Privacy Policy

Canadian Air Freqs

AIRMETs/SIGMETs

FAA Airport Status
Nat'l Airspace Status
Arrival Demand Charts


Server Software By:
Icecast.org
Liquidsoap